Weather Roundup
Issued by NWS Chicago, IL

Home | Current Version | Previous Version | Graphics & Text | Print | Product List | Glossary On
Versions: 1 2 3 4 5 6 7 8 9 10 11 12 13 14 15 16 17 18 19 20 21 22 23 24 25 26 27 28 29 30 31 32 33 34 35 36 37 38 39 40 41 42 43 44 45 46 47 48 49 50
000
NZUS59 KLOT 010708
HRRLOT

CHICAGO AREA WEATHER ROUNDUP
NATIONAL WEATHER SERVICE CHICAGO/ROMEOVILLE IL
200 AM CDT SUN MAY 01 2016

NOTE: "FAIR" INDICATES FEW OR NO CLOUDS BELOW 12,000 FEET WITH NO
SIGNIFICANT WEATHER AND/OR OBSTRUCTIONS TO VISIBILITY.

* THESE STATIONS ARE NOT UNDER NWS QUALITY CONTROL. THEY ALSO MAY NOT
  REPORT WEATHER SUCH AS PRECIPITATION OR FOG.

ILZ005-006-012>014-019>023-010800-
NORTHEAST ILLINOIS

CITY           SKY/WX    TMP DP  RH WIND       PRES   REMARKS
OHARE          DRIZZLE   45  45 100 NE10      29.91S FOG
MIDWAY         DRIZZLE   47  44  90 NE12      29.90S FOG
AURORA         CLOUDY    47  45  93 NE13      29.91S FOG
LANSING*       CLOUDY    46  46  99 N6        29.89S FOG
JOLIET*        CLOUDY    48  47  97 NE6       29.89F FOG
WAUKEGAN       CLOUDY    43  43 100 NE13      29.93F FOG
DUPAGE AIRPORT CLOUDY    46  43  89 NE10      29.91S FOG
WHEELING       CLOUDY    45  44  97 NE10      29.93F FOG
KANKAKEE*      CLOUDY    48  47  97 NE9       29.87F FOG
MORRIS*        CLOUDY    47  46  96 CALM      29.89S FOG
LEWIS AIRPORT* CLOUDY    46  45  97 NE13      29.89F FOG
$$

WIZ051-052-058>065-066-070>072-010800-
SOUTHEAST WISCONSIN

CITY           SKY/WX    TMP DP  RH WIND       PRES   REMARKS
MILWAUKEE      CLOUDY    43  41  93 NE15      29.98R
KENOSHA*       LGT RAIN  44  42  93 NE13G23   29.95R FOG
RACINE*        LGT RAIN  43  41  93 NE13      29.97S FOG
BURLINGTON     CLOUDY    42  42  99 NE8       29.95S FOG
WAUKESHA       CLOUDY    43  41  93 NE9       29.99R
WEST BEND      DRIZZLE   41  39  93 N5        30.00S
$$

INZ001>003-010>013-019-020-010800-
NORTHWEST INDIANA

CITY           SKY/WX    TMP DP  RH WIND       PRES   REMARKS
GARY*          CLOUDY    48  48 100 NE5       29.90R FOG
MICHIGAN CITY* NOT AVBL
RENSSELAER*    NOT AVBL
VALPARAISO     CLOUDY    47  47 100 NE10      29.88S FOG
$$

LMZ740>746-010800-
SOUTHERN LAKE MICHIGAN

STATION/POSITION TIME  SKY/WX   TEMP WIND        PRES    VSBY
                                AIR  DIR/SP/G
                 (UTC)          (F)  (DEG/KT/KT) (MB)    (MI)
HARRISON CRIB    0600            44   50/ 19/ 22   N/A
BURNHAM HARBOR   0700            45   20/ 10/ 16   N/A
CALUMET HARBOR   0600            45   30/ 12/ 16 1011.8F
BURNS HARBOR     0610            48   70/ 11/ 13 1012.5F
MICHIGAN CITY    0600            48   40/  8/ 10   N/A
$$

ABBREVIATIONS USED IN REMARKS
   TC - TEMPERATURE IN CELSIUS
  WCI - WIND CHILL INDEX
   HX - HEAT INDEX
  VSB - VISIBILITY
$$



USA.gov is the U.S. government's official web portal to all federal, state and local government web resources and services.